Flag for Slovakia Weather past 2 weeks in Prešov, Slovakia

Now
59 °F

Clear.


Feels Like: 58 °F
Forecast: 58 / 85 °F
Wind: 7 mph from Northeast

Location: Kosice - Barca

Current Time: Aug 2, 2015 at 6:24:31 AM

Latest Report: Aug 2, 2015 at 6:00 AM


Visibility: 10 mi

Pressure: 30.09 "Hg

Humidity: 68%

Dew point: 48 °F

Location of PrešovLocation

Historic Weather in Prešov — Graph

°F

Prešov temperature yesterday

Maximum temperature yesterday: 79 °F (at 4:00 PM)
Minimum temperature yesterday: 52 °F (at 2:30 AM)
Average temperature yesterday: 66 °F

Past Weeks' High & Low Weather Summary

 TemperatureHumidityPressure
High93 °F (Jul 23, 1:30 PM)100% (Jul 26, 2:00 AM)30.12 "Hg (Jul 26, 2:00 AM)
Low52 °F (Aug 1, 2:30 AM)28% (Aug 1, 4:00 PM)29.71 "Hg (Jul 25, 5:00 PM)
Average71 °F68%29.92 "Hg
* Reported Jul 18 5:00 AM — Aug 2 5:00 AM, Prešov, Weather by CustomWeather, © 2015

Note: Actual official high and low records may vary slightly from our data, if they occured in-between our weather recording intervals... More about our weather records

Advertising

Prešov weather history for previous 24 hours

 ConditionsComfort  
Time TempWeatherWind HumidityBarometerVisibility
5:00 AM
Sun, Aug 2
59 °FClear.6 mph68%30.09 "Hg10 mi
4:30 AM59 °FClear.7 mph68%30.09 "Hg10 mi
4:00 AM61 °FClear.7 mph63%30.09 "Hg10 mi
3:30 AM61 °FClear.6 mph63%30.09 "Hg10 mi
3:00 AM59 °FClear.6 mph68%30.09 "Hg10 mi
2:30 AM61 °FClear.6 mph63%30.09 "Hg10 mi
2:00 AM59 °FClear.6 mph68%30.09 "Hg10 mi
1:00 AM61 °FClear.6 mph63%30.09 "Hg10 mi
12:00 AM61 °FClear.9 mph63%30.09 "Hg10 mi
11:30 PM
Sat, Aug 1
61 °FClear.5 mph63%30.09 "Hg10 mi
11:00 PM61 °FClear.7 mph68%30.07 "Hg10 mi
10:30 PM63 °FClear.6 mph59%30.07 "Hg10 mi
10:00 PM63 °FClear.8 mph64%30.07 "Hg10 mi
9:30 PM64 °FClear.5 mph60%30.07 "Hg10 mi
9:00 PM66 °FSunny.5 mph56%30.07 "Hg10 mi
8:30 PM68 °FPassing clouds.5 mph53%30.07 "HgN/A
8:00 PM70 °FSunny.2 mph46%30.04 "Hg10 mi
7:30 PM73 °FSunny.1 mph41%30.04 "Hg10 mi
7:00 PM77 °FSunny.3 mph34%30.07 "Hg10 mi
6:30 PM79 °FSunny.1 mph30%30.07 "Hg10 mi
6:00 PM79 °FSunny.2 mph30%30.07 "Hg10 mi
5:30 PM79 °FSunny.2 mph30%30.07 "Hg10 mi
5:00 PM79 °FPassing clouds.3 mph32%30.07 "HgN/A
4:30 PM79 °FSunny.2 mph30%30.07 "Hg10 mi
4:00 PM79 °FPassing clouds.3 mph28%30.07 "HgN/A
3:30 PM77 °FSunny.2 mph34%30.07 "Hg10 mi
3:00 PM77 °FSunny.5 mph32%30.09 "Hg10 mi
2:30 PM77 °FSunny.3 mph32%30.09 "Hg10 mi
2:00 PM75 °FPassing clouds.3 mph34%30.09 "HgN/A
1:30 PM75 °FSunny.3 mph36%30.09 "Hg10 mi
1:00 PM75 °FPassing clouds.5 mph29%30.09 "HgN/A
12:30 PM73 °FPassing clouds.6 mph31%30.12 "HgN/A
12:00 PM73 °FPassing clouds.8 mph31%30.12 "HgN/A
11:30 AM73 °FPassing clouds.6 mph36%30.12 "HgN/A
11:00 AM72 °FPassing clouds.8 mph36%30.12 "HgN/A
10:30 AM70 °FPassing clouds.9 mph46%30.12 "HgN/A
10:00 AM70 °FPassing clouds.7 mph43%30.12 "HgN/A
9:30 AM68 °FSunny.9 mph43%30.12 "Hg10 mi
9:00 AM66 °FSunny.9 mph49%30.12 "Hg10 mi
8:30 AM64 °FPassing clouds.8 mph60%30.12 "HgN/A
8:00 AM63 °FPassing clouds.5 mph59%30.12 "HgN/A
7:30 AM61 °FPassing clouds.5 mph63%30.12 "HgN/A
7:00 AM59 °FSunny.5 mph63%30.12 "Hg10 mi
6:30 AM55 °FSunny.6 mph72%30.12 "Hg10 mi
6:00 AM55 °FClear.6 mph67%30.12 "Hg10 mi
Weather by CustomWeather, © 2015

See weather overviewHow to use our weather pages